Regional Weather Roundup
Issued by NWS

Home | Current Version | Previous Version | Graphics & Text | Print | Product List | Glossary On
Versions: 1 2 3 4 5 6 7 8 9 10 11 12 13 14 15 16 17 18 19 20 21 22 23 24 25 26 27
000
ASUS45 KCYS 170610
RWRWY

WYOMING REGIONAL WEATHER ROUNDUP
NATIONAL WEATHER SERVICE CHEYENNE WY
1200 AM MDT THU APR 17 2014

NOTE:  "FAIR" INDICATES FEW OR NO CLOUDS BELOW 12,000 FEET
WITH NO SIGNIFICANT WEATHER AND/OR OBSTRUCTIONS TO VISIBILITY.

WYZ001-170700-
YELLOWSTONE NATIONAL PARK

CITY           SKY/WX    TMP DP  RH WIND       PRES   REMARKS
LK YELLOWSTONE   N/A     25  16  68 CALM      30.04S
6HR MIN TEMP:  25; 6HR MAX TEMP:  36;

W YELLOWSTONE  NOT AVBL

$$
WYZ002>013-054>058-071-098>099-170700-
NORTHERN WYOMING

CITY           SKY/WX    TMP DP  RH WIND       PRES   REMARKS
JACKSON        CLEAR     27  21  80 CALM      30.03S
CODY           CLEAR     30  27  86 SE3       30.02S
GREYBULL       MOCLDY    37  31  78 W8        30.01S WCI  31
6HR MIN TEMP:  37; 6HR MAX TEMP:  51;

WORLAND        CLEAR     36  29  75 SE6       30.02R WCI  31
6HR MIN TEMP:  34; 6HR MAX TEMP:  50;

SHERIDAN       CLOUDY    33  31  92 SE5       30.06S WCI  29
6HR MIN TEMP:  33; 6HR MAX TEMP:  41; 6HR PCP:  0.06;

BUFFALO        LGT SNOW  32  30  92 CALM      30.07R VSB 3/4
6HR MIN TEMP:  31; 6HR MAX TEMP:  36; 6HR PCP:  0.01;

GILLETTE       PTCLDY    32  29  88 S7        30.07R WCI  26
6HR MIN TEMP:  29; 6HR MAX TEMP:  40; 6HR PCP: TRACE;

HULETT         FAIR      30  27  86 CALM      30.09
NEWCASTLE      MOCLDY    32  32 100 S10       30.12  WCI  24

$$
WYZ014>020-022>026-101>103-170700-
CENTRAL WYOMING

CITY           SKY/WX    TMP DP  RH WIND       PRES   REMARKS
BIG PINEY      PTCLDY    23  15  71 VRB3      30.06R
6HR MIN TEMP:  23; 6HR MAX TEMP:  46;

PINEDALE       CLEAR     27  23  86 NW5       30.06R WCI  21
DUBOIS         FAIR      28  16  59 NW8       30.02S WCI  20
LANDER         PTCLDY    34  23  64 W7        30.02S WCI  28
6HR MIN TEMP:  34; 6HR MAX TEMP:  51;

RIVERTON       CLEAR     32  27  81 NE10      30.03S WCI  24
6HR MIN TEMP:  32; 6HR MAX TEMP:  50;

CASPER         CLOUDY    32  30  92 E6        30.06S WCI  26
6HR MIN TEMP:  32; 6HR MAX TEMP:  43;

DOUGLAS        MOCLDY    35  31  85 SE7       30.10S WCI  29
6HR MIN TEMP:  32; 6HR MAX TEMP:  43; 6HR PCP: TRACE;


$$
WYZ021-027>030-104>119-170700-
SOUTHERN WYOMING

CITY           SKY/WX    TMP DP  RH WIND       PRES   REMARKS
EVANSTON       CLEAR     35  12  38 SW5       30.06S WCI  31
6HR MIN TEMP:  32; 6HR MAX TEMP:  47;

FORT BRIDGER   FAIR      33  13  44 SW7       30.08F WCI  27
ROCK SPRINGS   PTCLDY    36  11  35 CALM      30.04S
6HR MIN TEMP:  34; 6HR MAX TEMP:  50;

DIXON          CLOUDY    32  22  65 SE3       30.05R
RAWLINS        PTCLDY    31  19  61 NE12      30.03R WCI  22
6HR MIN TEMP:  28; 6HR MAX TEMP:  48;

SARATOGA       CLOUDY    30  18  59 E3        30.02R
LARAMIE        MOCLDY    30  26  85 SE20      30.02S WCI  17
6HR MIN TEMP:  29; 6HR MAX TEMP:  40;

CHEYENNE       CLOUDY    35  28  75 SE10      30.08R WCI  27
6HR MIN TEMP:  34; 6HR MAX TEMP:  43;

TORRINGTON     FLURRIES  35  31  85 E12       30.12R WCI  27
6HR MIN TEMP:  35; 6HR MAX TEMP:  51; 6HR PCP: TRACE;

PINE BLUFFS    CLOUDY    34  30  86 S8        30.12S WCI  27

$$



USA.gov is the U.S. government's official web portal to all federal, state and local government web resources and services.